Hourly Data Report for December 06, 2021

TORONTO CITY
ONTARIO
Current Station Operator: ECCC - MSC

43°40'00.000" N
79°24'00.000" W
112.50 m
6158355
71508
XTO

Download Data

Hourly Data (December 2021)
Hourly Data Report for December 6, 2021
TIME
LST
Temp Definition
°C
Dew Point Definition
°C
Rel Hum Definition
%
Precip. Amount Definition
mm

Wind Dir Definition
10's deg

Wind Spd Definition
km/h
Visibility Definition
km
Stn Press Definition
kPa
Hmdx Definition


Wind Chill Definition


Weather Definition


00:00 4.2 3.3 94 2.9       99.21     LegendNANA
01:00 4.8 4.0 95 0.8       99.05     LegendNANA
02:00 5.3 4.5 95 0.8       98.93     LegendNANA
03:00 6.0 5.3 95 0.3       98.81     LegendNANA
04:00 8.3 6.9 91 0.0       98.74     LegendNANA
05:00 8.9 7.3 90 0.0       98.67     LegendNANA
06:00 10.2 8.2 88 0.0       98.61     LegendNANA
07:00 10.0 8.0 87 0.0       98.56     LegendNANA
08:00 9.3 7.9 91 0.0       98.43     LegendNANA
09:00 9.7 8.7 93 0.5       98.36     LegendNANA
10:00 9.7 8.9 95 0.4       98.32     LegendNANA
11:00 8.4 6.3 86 0.4       98.37     LegendNANA
12:00 6.5 3.1 79 0.0       98.46     LegendNANA
13:00 6.0 1.5 73 0.0       98.51     LegendNANA
14:00 4.9 -1.3 64 0.0       98.65     LegendNANA
15:00 4.3 -4.2 54 0.0       98.71     LegendNANA
16:00 3.5 -3.2 62 0.0       98.83     LegendNANA
17:00 2.3 -3.8 64 0.0       98.99     LegendNANA
18:00 2.3 -4.4 61 0.0       99.12     LegendNANA
19:00 1.5 -3.5 69 0.0       99.21     LegendNANA
20:00 1.0 -1.8 81 0.0       99.38     LegendNANA
21:00 1.0 -4.0 69 0.1       99.51     LegendNANA
22:00 0.8 -6.7 57 0.0       99.63     LegendNANA
23:00 0.1 -7.0 59 0.0       99.84     LegendNANA

Notes on Data Quality.

Legend

  • E = Estimated
  • M = Missing
  • NA = Not Available*
  • [empty] = Indicates an unobserved value
Date modified: